Regional Weather Roundup
Issued by NWS Newport/Morehead, NC

Current Version | Previous Version | Graphics & Text | Print | Product List | Glossary Off
Versions: 1 2 3 4 5 6 7 8 9 10 11 12 13 14 15 16 17 18 19 20 21 22 23 24 25 26 27 28 29 30 31 32 33 34 35 36 37 38 39 40 41 42 43 44 45 46 47 48 49 50
000 ASUS42 KMHX 231225 RWRMHX WEATHER ROUNDUP FOR EASTERN NORTH CAROLINA NATIONAL WEATHER SERVICE NEWPORT/MOREHEAD CITY NC 800 AM EDT THU MAR 23 2017 NOTE: "FAIR" INDICATES FEW OR NO CLOUDS BELOW 12,000 FEET WITH NO SIGNIFICANT WEATHER AND/OR OBSTRUCTIONS TO VISIBILITY NCZ015>017-031-032-045>047-102-103-231300- NORTH COAST CITY SKY/WX TMP DP RH WIND PRES REMARKS EDENTON SUNNY 36 25 65 NE3 30.60R ELIZABETH CITY SUNNY 36 23 59 N14 30.58R KITTY HAWK NOT AVBL MANTEO MOSUNNY 38 22 52 NE13G21 30.58R $$ NCZ045>047-081-094-103-104-231300- CENTRAL COAST CITY SKY/WX TMP DP RH WIND PRES REMARKS FRISCO SUNNY 42 22 44 NE15G25 30.53R $$ NCZ095-097-098-100-101-231300- SOUTHERN COAST CITY SKY/WX TMP DP RH WIND PRES REMARKS BEAUFORT SUNNY 41 28 60 VRB7 30.53R CEDAR ISLAND NOT AVBL JACKSONVILLE CLEAR 37 32 82 N6 30.53R PINEY ISLAND SUNNY N/A N/A N/A NE16 30.54R WILMINGTON CLEAR 37 30 75 NE8 30.51R $$ NCZ011>013-027>030-043-044-078>080-089-090>093-098-231300- COASTAL PLAIN CITY SKY/WX TMP DP RH WIND PRES REMARKS AHOSKIE NOT AVBL CLINTON CLEAR 37 29 73 NE3 30.56R ELIZABETHTOWN CLEAR 37 30 78 CALM 30.53R GOLDSBORO CLEAR 35 25 67 NE8 30.54R GREENVILLE PTCLDY 36 28 75 NE8 30.56R HAVELOCK MOSUNNY 42 26 53 NE17 N/A KENANSVILLE CLEAR 36 28 75 NE5 30.55R KINSTON CLEAR 34 28 80 CALM 30.56R NEW BERN PTCLDY 38 29 70 E9 30.56R RICHLANDS CLEAR 34 31 88 NE6 30.54R ROCKY MOUNT PTCLDY 31 24 75 N8 30.57R WASHINGTON PTCLDY 34 26 75 NE7 30.57R WHITEVILLE CLEAR 38 29 67 NE7 30.51R $$ AMZ130-135-150-152-154-156-158-170-250-252-270-ANZ085-086-088-633-658-670-231300- MARINE OBSERVATIONS STATION/POSITION TIME TEMP WIND PRES WAVE SWELL AIR SEA DIR/SP/G HT/PER HT/PER (UTC) (F) (DEG/KT/KT) (MB) (FT/S) (FT/S) CHESAPEAKE LIGHT NOT AVBL 64 E VA BEACH 1150 38 50 20/ 17/ 23 1034.7 8/ 8 5/ 8 DUCK 1200 38 47 30/ 18/ 22 1034.9 2 E DUCK 1200 47 N/A 6/ 7 2/11 OREGON INLET 1200 38 49 10/ 13/ 22 1034.7 13E OREGON INLT NOT AVBL HATTERAS CG 1200 41 52 30/ 14/ 19 1033.5 DIAMOND BUOY 1150 45 75 30/ 21/ 27 1033.1 13/11 10/11 CAPE LOOKOUT 1200 44 30/ 19/ 26 1033.1 BEAUFORT LAB 1200 41 52 40/ 9/ 10 1032.9 30 SE NEW RVR IN 1208 48 60/ 19/ 29 1032.6 30 SE NEW RVR IN 1213 63 N/A 6/ 6 2/11 27 SE WRIGHTSVLE 1208 50 62 80/ 19/ 27 1031.4 5 SE WRIGHTSVLE 1208 48 57 70/ 17/ 29 1032.8 225 S CAPE HAT 1150 61 72 40/ 19/ 25 1026.7 9/10 8/10 41 SE CHARLESTON 1150 60 66 60/ 21/ 27 1027.5 8/ 8 5/ 8 $$

USA.gov is the U.S. government's official web portal to all federal, state and local government web resources and services.